Regional Weather Roundup
Issued by NWS

Home | Current Version | Previous Version | Graphics & Text | Print | Product List | Glossary On
Versions: 1 2 3 4 5 6 7 8 9 10 11 12 13 14 15 16 17 18 19 20 21 22 23 24 25 26 27 28 29 30 31 32 33 34 35 36 37 38 39 40 41 42 43 44 45 46 47 48 49 50
712
ASUS43 KOAX 041902
RWRNE

WEATHER ROUNDUP FOR NEBRASKA
NATIONAL WEATHER SERVICE OMAHA NE
200 PM CDT WED MAY 04 2016

NOTES: SATELLITE DATA IS BEING USED TO AUGMENT CLOUD COVER ABOVE
       12000 FEET.
       "FAIR" INDICATES FEW OR NO CLOUDS BELOW 12,000 FEET WITH NO
       SIGNIFICANT WEATHER AND/OR OBSTRUCTIONS TO VISIBILITY.

  * THESE STATIONS DO NOT REPORT WEATHER SUCH AS RAIN...SNOW OR FOG.

NEZ001>004-019>022-054>056-042000-
NEBRASKA PANHANDLE

CITY           SKY/WX    TMP DP  RH WIND       PRES   REMARKS
SCOTTSBLUFF    SUNNY     72  38  29 VRB5      30.16F
ALLIANCE       SUNNY     70  37  29 CALM      30.16F
CHADRON        SUNNY     74  37  26 CALM      30.13F
KIMBALL        SUNNY     69  36  29 CALM      30.21F
SIDNEY         SUNNY     72  39  30 SE9       30.19F
$$

NEZ057>060-069>072-079>082-042000-
SOUTHWEST NEBRASKA

CITY           SKY/WX    TMP DP  RH WIND       PRES   REMARKS
NORTH PLATTE   SUNNY     74  38  27 NE12G20   30.12F
IMPERIAL       SUNNY     75  38  26 N9        30.15F
LEXINGTON      SUNNY     69  38  31 N8        30.12F
MCCOOK         SUNNY     74  44  34 N10G17    30.12F
$$

NEZ005>010-023>029-035>040-094-042000-
NORTH CENTRAL NEBRASKA

CITY           SKY/WX    TMP DP  RH WIND       PRES   REMARKS
VALENTINE      SUNNY     72  33  24 VRB7      30.12F
AINSWORTH      SUNNY     68  34  28 N8        30.13F
BROKEN BOW     SUNNY     70  43  37 N17       30.11F
ORD            SUNNY     68  30  24 N17       30.10F
$$

NEZ041-046>049-061>064-073>077-083>087-042000-
SOUTH CENTRAL NEBRASKA

CITY           SKY/WX    TMP DP  RH WIND       PRES   REMARKS
GRAND ISLAND   SUNNY     67  31  26 N15       30.11F
AURORA         SUNNY     66  32  28 N10       30.10F
HASTINGS       SUNNY     66  35  31 N16G22    30.10F
KEARNEY *      SUNNY     68  36  30 N15G21    30.12F
YORK           SUNNY     64  36  34 N9G24     30.09F
$$

NEZ011>018-030>034-042>045-042000-
NORTHEAST NEBRASKA

CITY           SKY/WX    TMP DP  RH WIND       PRES   REMARKS
NORFOLK        SUNNY     65  34  31 N14       30.08F
ALBION         SUNNY     65  37  35 N10G18    30.09F
BLAIR          SUNNY     64  40  41 N15G24    30.05F
COLUMBUS *     SUNNY     66  36  32 NW12G17   30.09F
FREMONT        SUNNY     65  35  33 N7G21     30.06F
TEKAMAH        SUNNY     65  40  39 N13G23    30.05F
$$

NEZ050>053-065>068-078-088>093-042000-
SOUTHEAST NEBRASKA

CITY           SKY/WX    TMP DP  RH WIND       PRES   REMARKS
LINCOLN        SUNNY     69  36  29 N18G25    30.07F
OMAHA EPPLEY   MOSUNNY   66  38  35 N20       30.04F
BEATRICE       SUNNY     67  38  34 N14G22    30.07S
FALLS CITY     SUNNY     67  41  38 N12G22    30.02F
$$

NEZ044-045-051>053-067-042000-
OMAHA AREA

CITY           SKY/WX    TMP DP  RH WIND       PRES   REMARKS
OMAHA EPPLEY   MOSUNNY   66  38  35 N20       30.04F
BLAIR          SUNNY     64  40  41 N15G24    30.05F
FREMONT        SUNNY     65  35  33 N7G21     30.06F
OFFUTT AFB     MOSUNNY   64  39  39 N12G23    30.03F
$$




USA.gov is the U.S. government's official web portal to all federal, state and local government web resources and services.